| time (UTC) | temp F | wind direction | speed knots | gust knots | rain 1hr in | rain 24hr in | rain mn in | humidity % | barometer mb |
| 20260502224552 | 64 | 180 | 3.5 | 11.3 | 0.00 | 0.00 | 0.00 | 84 | 1016.2 |
| 20260502223055 | 64 | 196 | 5.2 | 12.2 | 0.00 | 0.00 | 0.00 | 84 | 1016.2 |
| 20260502221551 | 65 | 192 | 2.6 | 7.8 | 0.00 | 0.00 | 0.00 | 84 | 1016.3 |
| 20260502220054 | 65 | 181 | 3.5 | 8.7 | 0.00 | 0.00 | 0.00 | 84 | 1016.3 |
| 20260502214552 | 64 | 192 | 3.5 | 9.6 | 0.00 | 0.00 | 0.00 | 85 | 1016.4 |
| 20260502213108 | 64 | 188 | 1.7 | 8.7 | 0.00 | 0.00 | 0.00 | 85 | 1016.6 |
| 20260502211554 | 64 | 182 | 2.6 | 7.8 | 0.00 | 0.00 | 0.00 | 85 | 1016.6 |
| 20260502210052 | 64 | 200 | 2.6 | 7.0 | 0.00 | 0.00 | 0.00 | 85 | 1016.8 |
| 20260502204602 | 64 | 192 | 2.6 | 7.8 | 0.00 | 0.00 | 0.00 | 85 | 1016.5 |
| 20260502203058 | 64 | 217 | 3.5 | 7.8 | 0.00 | 0.00 | 0.00 | 84 | 1016.3 |
| 20260502201550 | 65 | 202 | 4.3 | 8.7 | 0.00 | 0.00 | 0.00 | 84 | 1016.4 |
| 20260502200115 | 65 | 204 | 4.3 | 9.6 | 0.00 | 0.00 | 0.00 | 84 | 1016.2 |
| 20260502194606 | 65 | 204 | 3.5 | 9.6 | 0.00 | 0.00 | 0.00 | 84 | 1016.1 |
| 20260502193057 | 65 | 190 | 5.2 | 8.7 | 0.00 | 0.00 | 0.00 | 84 | 1016.1 |
| 20260502191556 | 65 | 196 | 5.2 | 9.6 | 0.00 | 0.00 | 0.00 | 84 | 1016.2 |
| 20260502190054 | 66 | 201 | 4.3 | 9.6 | 0.00 | 0.00 | 0.00 | 84 | 1016.1 |
| 20260502184559 | 65 | 205 | 5.2 | 12.2 | 0.00 | 0.00 | 0.00 | 84 | 1015.9 |
| 20260502183052 | 66 | 200 | 4.3 | 8.7 | 0.00 | 0.00 | 0.00 | 84 | 1015.8 |
| 20260502181549 | 66 | 190 | 4.3 | 10.4 | 0.00 | 0.00 | 0.00 | 84 | 1015.9 |
| 20260502180114 | 66 | 258 | 5.2 | 11.3 | 0.00 | 0.00 | 0.00 | 84 | 1016.0 |
| 20260502163052 | 67 | 202 | 5.2 | 13.0 | 0.00 | 0.00 | 0.00 | 83 | 1016.7 |
| 20260502161553 | 67 | 223 | 4.3 | 11.3 | 0.00 | 0.00 | 0.00 | 83 | 1016.9 |
| 20260502151606 | 67 | 208 | 4.3 | 8.7 | 0.00 | 0.00 | 0.00 | 83 | 1017.5 |
| 20260502150125 | 67 | 211 | 5.2 | 10.4 | 0.00 | 0.00 | 0.00 | 83 | 1017.6 |
| 20260502130105 | 67 | 242 | 3.5 | 7.8 | 0.00 | 0.00 | 0.00 | 82 | 1018.8 |
| 20260502123051 | 68 | 210 | 4.3 | 8.7 | 0.00 | 0.00 | 0.00 | 83 | 1018.9 |
| 20260502121559 | 69 | 210 | 4.3 | 10.4 | 0.00 | 0.00 | 0.00 | 80 | 1018.7 |
| 20260502120113 | 69 | 214 | 3.5 | 9.6 | 0.00 | 0.00 | 0.00 | 81 | 1019.2 |
| 20260502114612 | 68 | 225 | 3.5 | 8.7 | 0.00 | 0.00 | 0.00 | 83 | 1019.5 |
| 20260502113112 | 68 | 225 | 5.2 | 10.4 | 0.00 | 0.00 | 0.00 | 82 | 1019.4 |
| 20260502111555 | 68 | 198 | 4.3 | 9.6 | 0.00 | 0.00 | 0.00 | 82 | 1019.4 |
| 20260502110103 | 68 | 216 | 5.2 | 10.4 | 0.00 | 0.00 | 0.00 | 82 | 1019.6 |
| 20260502104553 | 69 | 183 | 3.5 | 12.2 | 0.00 | 0.00 | 0.00 | 82 | 1019.6 |
| 20260502103112 | 68 | 223 | 4.3 | 9.6 | 0.00 | 0.00 | 0.00 | 83 | 1019.9 |
| 20260502101606 | 68 | 227 | 3.5 | 8.7 | 0.00 | 0.00 | 0.00 | 82 | 1020.0 |
| 20260502070059 | 67 | 191 | 3.5 | 8.7 | 0.00 | 0.00 | 0.00 | 80 | 1020.1 |
| 20260502064558 | 66 | 218 | 4.3 | 10.4 | 0.00 | 0.00 | 0.00 | 81 | 1020.0 |
| 20260502063104 | 66 | 193 | 5.2 | 10.4 | 0.00 | 0.00 | 0.00 | 81 | 1020.1 |
| 20260502061559 | 66 | 205 | 1.7 | 9.6 | 0.00 | 0.00 | 0.00 | 82 | 1019.9 |
| 20260502060106 | 65 | 202 | 1.7 | 5.2 | 0.00 | 0.00 | 0.00 | 82 | 1020.0 |
| 20260502054615 | 65 | 0 | 1.7 | 6.1 | 0.00 | 0.00 | 0.00 | 82 | 1019.9 |
| 20260502053051 | 65 | 175 | 0.9 | 3.5 | 0.00 | 0.00 | 0.00 | 82 | 1019.8 |
| 20260502051551 | 65 | 145 | 0.0 | 5.2 | 0.00 | 0.00 | 0.00 | 82 | 1019.8 |
| 20260502050054 | 65 | 0 | 0.9 | 4.3 | 0.00 | 0.00 | 0.00 | 82 | 1019.9 |
| 20260502044552 | 65 | 163 | 0.9 | 3.5 | 0.00 | 0.00 | 0.00 | 82 | 1019.8 |
| 20260502043104 | 65 | 194 | 1.7 | 6.1 | 0.00 | 0.00 | 0.00 | 82 | 1019.9 |
| 20260502041556 | 65 | 193 | 2.6 | 6.1 | 0.00 | 0.00 | 0.00 | 82 | 1019.9 |
| 20260502040055 | 65 | 192 | 2.6 | 6.1 | 0.00 | 0.00 | 0.00 | 82 | 1019.9 |
| 20260502034600 | 65 | 202 | 2.6 | 8.7 | 0.00 | 0.00 | 0.00 | 82 | 1020.0 |
| 20260502033054 | 65 | 190 | 2.6 | 7.8 | 0.00 | 0.00 | 0.00 | 82 | 1019.9 |
| 20260502031555 | 65 | 182 | 4.3 | 8.7 | 0.00 | 0.00 | 0.00 | 82 | 1020.0 |
| 20260502030106 | 65 | 194 | 3.5 | 8.7 | 0.00 | 0.00 | 0.00 | 83 | 1020.0 |
| 20260502024556 | 65 | 197 | 3.5 | 7.8 | 0.00 | 0.00 | 0.00 | 83 | 1020.0 |
| 20260502023100 | 65 | 218 | 2.6 | 7.0 | 0.00 | 0.00 | 0.00 | 82 | 1020.1 |
| 20260502021555 | 65 | 197 | 4.3 | 8.7 | 0.00 | 0.00 | 0.00 | 82 | 1020.0 |
| 20260502020054 | 65 | 209 | 3.5 | 9.6 | 0.00 | 0.00 | 0.00 | 82 | 1020.3 |
| 20260502014551 | 65 | 211 | 4.3 | 9.6 | 0.00 | 0.00 | 0.00 | 82 | 1020.2 |
| 20260502013056 | 65 | 185 | 4.3 | 8.7 | 0.00 | 0.00 | 0.00 | 82 | 1020.4 |
| 20260502011549 | 65 | 195 | 4.3 | 11.3 | 0.00 | 0.00 | 0.00 | 82 | 1020.6 |
| 20260502010057 | 65 | 205 | 4.3 | 12.2 | 0.00 | 0.00 | 0.00 | 81 | 1020.6 |
| 20260502004552 | 65 | 211 | 5.2 | 11.3 | 0.00 | 0.00 | 0.00 | 81 | 1020.8 |
| 20260502003056 | 65 | 202 | 5.2 | 10.4 | 0.00 | 0.00 | 0.00 | 81 | 1020.9 |
| 20260502001549 | 65 | 200 | 3.5 | 7.8 | 0.00 | 0.00 | 0.00 | 82 | 1021.1 |
| 20260502000050 | 65 | 205 | 3.5 | 8.7 | 0.00 | 0.00 | 0.00 | 82 | 1021.4 |
| 20260501234553 | 65 | 242 | 3.5 | 9.6 | 0.00 | 0.00 | 0.00 | 82 | 1021.6 |
| 20260501233055 | 65 | 225 | 5.2 | 11.3 | 0.00 | 0.00 | 0.00 | 82 | 1021.6 |
| 20260501231555 | 65 | 242 | 5.2 | 11.3 | 0.00 | 0.00 | 0.00 | 83 | 1021.6 |
| 20260501230059 | 65 | 217 | 5.2 | 10.4 | 0.00 | 0.00 | 0.00 | 83 | 1021.5 |